Regional Weather Roundup
Issued by NWS Kansas City/Pleasant Hill, MO

Home | Current Version | Previous Version | Graphics & Text | Print | Product List | Glossary Off
Versions: 1 2 3 4 5 6 7 8 9 10 11 12 13 14 15 16 17 18 19 20 21 22 23 24 25 26 27 28 29 30 31 32 33 34 35 36 37 38 39 40 41 42 43 44 45 46 47 48 49 50

000
ASUS43 KEAX 230511
RWREAX

WEATHER ROUNDUP FOR EASTERN KANSAS AND NORTHWEST MISSOURI
NATIONAL WEATHER SERVICE KANSAS CITY/PLEASANT HILL MO
1200 AM CDT THU OCT 23 2014

KSZ040-057-103>105-MOZ028-029-037-043-230600-
...KANSAS CITY METROPOLITAN AREA...

CITY           SKY/WX    TMP DP  RH WIND       PRES   REMARKS
K.C. INTL      CLOUDY    60  51  72 SE14      30.10F
K.C. DOWNTOWN  MOCLDY    64  49  57 S7        30.11S
LEES SUMMIT    MOCLDY    59  48  67 S6        30.12F
OLATHE - IXD   MOCLDY    62  52  69 SE12      30.11F
OLATHE - OJC   MOCLDY    60  52  74 S10       30.11S
LAWRENCE       CLOUDY    61  53  75 SE9       30.09F

$$

MOZ001>008-011>017-020>025-030>033-038>040-044>046-053-054-230600-
...NORTHERN AND CENTRAL MISSOURI...

CITY           SKY/WX    TMP DP  RH WIND       PRES   REMARKS
ST. JOSEPH     CLOUDY    61  50  67 S6        30.09F
MOSBY          MOCLDY    57  46  67 SE3       30.12S
WHITEMAN AFB   CLEAR     55  47  74 S7        30.14S
CLINTON        PTCLDY    57  48  72 S5        30.15S
SEDALIA        MOCLDY    53  45  74 SE7       30.16F
WARSAW         NOT AVBL
MARSHALL       PTCLDY    54  46  76 E7        30.16S
CHILLICOTHE      N/A     55  44  66 SE3       30.15F
MOBERLY        PTCLDY    48  39  71 SE5       30.19F
KIRKSVILLE     CLEAR     48  43  82 SE9       30.18F

$$

MOZ041-047>049-056>058-063>065-088>090-097-230600-
...EASTERN AND SOUTHERN MISSOURI...

CITY           SKY/WX    TMP DP  RH WIND       PRES   REMARKS
ST. LOUIS INTL PTCLDY    48  41  76 E9        30.23F
SPIRIT OF STL  CLEAR     39  38  96 CALM      30.21F
COLUMBIA       CLEAR     49  41  74 SE7       30.18F
JEFFERSON CITY CLEAR     47  41  80 SE6       30.18F
MEXICO         CLEAR     46  45  93 SE5       30.19F
HANNIBAL       CLEAR     52  39  62 SE5       30.20F
ROLLA          CLEAR     46  39  76 SE7       30.18F
LEBANON        CLEAR     48  45  87 SE6       30.19F
OSAGE BEACH    PTCLDY    52  43  71 SE6       30.18S
SPRINGFIELD    CLEAR     53  47  79 SE9       30.16F
BRANSON        CLEAR     50  46  87 SE6       30.19F
NEVADA         PTCLDY    57  48  72 S8        30.15S
JOPLIN         PTCLDY    59  51  75 SE7       30.14F
WEST PLAINS    CLEAR     41  38  89 CALM      30.22S

$$

IAZ060-094-KSZ022-034>040-054-083-096-NEZ052-066-093-230600-
...KANSAS...SOUTHEAST NEBRASKA AND IOWA...

CITY           SKY/WX    TMP DP  RH WIND       PRES   REMARKS
TOPEKA         CLOUDY    67  58  72 S10       30.08S
MANHATTAN      CLOUDY    63  61  93 CALM      30.07S
EMPORIA        CLOUDY    62  59  90 CALM      30.08F
CHANUTE        CLOUDY    62  59  90 SE8       30.11F
WICHITA        CLOUDY    65  57  75 S12       30.09F
OMAHA          CLOUDY    63  60  90 SE10      30.04F
LINCOLN        CLOUDY    62  58  86 S14       30.03F
FALLS CITY     LGT RAIN  63  59  87 CALM      30.09R
LAMONI         PTCLDY    55  44  66 SE12      30.11F
DES MOINES     MOCLDY    56  44  64 S12       30.09F

$$




USA.gov is the U.S. government's official web portal to all federal, state and local government web resources and services.